Temperature
21 19 18 19 19 19 19 19 18 19 19 18 17 17 17 17 17 17 17 17 17 17 18 17 17 17 17 17 17 17 16 16 16 16 16 16 16 16 16 15 15 15 15 15
19 19 20 20 20 19 19 19 18 19 19 18 17 17 17 17 16 17 17 17 17 17 17 17 17 17 17 17 17 17 16 16 16 16 16 16 16 16 15 15 15 15 15 15
20 20 21 20 20 20 19 19 19 19 18 18 18 17 17 17 17 17 17 17 17 17 17 17 17 17 17 17 17 17 16 16 16 16 16 16 15 15 15 15 15 15 15 15
20 20 21 20 20 20 19 20 19 19 17 16 17 16 17 16 16 16 16 17 17 17 17 17 17 17 17 17 17 17 16 16 16 16 16 15 15 15 15 15 15 15 15 15
20 20 20 20 20 20 19 19 19 18 17 16 17 16 16 16 16 16 16 16 17 17 17 17 17 17 17 17 17 17 16 16 16 16 16 15 15 15 15 15 15 15 15 15
20 20 20 20 20 20 19 18 17 16 16 16 17 16 16 15 16 16 16 17 17 17 17 17 17 17 17 17 17 16 16 16 16 16 16 15 15 15 15 15 15 15 15 15
19 20 20 21 20 20 18 17 16 16 15 16 16 16 16 17 17 16 16 17 17 17 17 17 17 17 17 17 16 16 16 16 16 16 15 15 15 15 15 15 15 15 15 15
19 18 20 20 20 19 18 17 17 17 16 16 16 16 16 17 17 18 18 17 17 17 17 17 17 17 17 16 16 16 16 16 16 15 15 15 15 15 15 15 15 15 15 15
18 18 20 20 20 19 18 17 17 16 16 16 16 16 17 17 17 17 17 17 17 17 17 17 17 17 17 16 16 16 16 16 16 15 15 15 15 15 15 15 15 15 15 15
18 18 19 19 20 19 18 16 15 16 16 16 16 16 16 17 17 16 16 17 17 17 17 17 17 17 17 16 16 16 16 16 15 15 15 15 15 15 15 15 15 15 15 15
18 18 18 19 19 18 18 17 15 14 15 15 16 16 17 17 17 16 17 17 18 17 17 17 17 17 16 16 16 16 16 15 15 15 15 15 15 15 15 15 14 14 14 14
16 15 16 17 18 18 18 17 15 16 15 14 14 15 17 16 17 17 17 18 18 18 17 17 17 17 16 16 16 16 16 15 15 15 15 15 15 14 15 15 14 14 14 14
16 15 16 17 17 18 18 17 15 14 13 13 14 16 17 16 17 17 18 18 18 18 17 17 17 17 17 16 16 16 16 15 15 15 15 15 15 14 14 14 14 14 14 14
16 15 16 17 17 17 17 17 15 15 14 14 14 16 17 16 16 17 17 18 18 18 17 17 17 17 17 16 16 16 16 15 15 15 15 15 15 14 14 14 14 14 14 14
15 16 16 16 17 17 17 17 16 15 15 14 15 15 16 16 16 17 17 18 17 17 17 17 17 17 17 16 16 16 16 15 15 15 15 15 15 14 14 14 14 14 14 14
14 15 16 16 17 17 17 17 16 16 16 15 15 16 16 17 17 17 17 17 17 17 17 17 17 17 17 16 16 16 16 15 15 15 15 15 15 15 14 14 14 14 14 14
13 14 15 15 15 16 16 17 17 17 16 16 16 16 16 16 16 16 17 17 17 17 17 17 17 17 17 16 16 16 16 15 15 15 15 15 15 14 14 14 14 14 14 14
13 13 12 13 15 16 16 17 17 17 17 16 16 16 16 16 17 17 17 17 17 17 17 17 17 16 16 16 16 16 15 15 15 15 15 15 14 14 14 14 14 14 14 14
12 13 12 12 14 14 16 17 16 17 17 16 16 16 16 16 16 16 17 17 17 17 17 17 17 16 16 16 16 16 15 15 15 15 15 14 14 14 14 14 14 14 14 14
12 12 12 12 14 15 16 17 17 17 16 17 16 15 15 15 14 15 17 17 17 17 17 16 16 16 16 16 15 15 15 15 15 14 14 14 14 14 14 14 14 14 14 13
13 12 12 12 13 14 15 16 17 16 16 17 17 16 16 15 16 17 17 17 17 17 16 16 16 16 16 15 15 15 15 15 14 14 14 14 14 14 14 14 14 14 13 13
12 12 11 11 13 14 16 15 15 16 17 17 17 17 17 17 17 17 17 17 16 16 16 16 16 15 15 15 15 14 14 14 14 14 14 14 14 13 13 13 13 13 13 13
11 12 12 12 14 15 16 16 17 17 17 17 17 17 17 17 17 17 16 16 16 16 15 15 15 15 15 14 14 14 14 14 14 14 14 14 13 13 13 13 13 13 13 12
11 11 11 11 12 15 16 16 17 17 17 17 17 17 17 16 16 16 16 16 15 15 15 15 14 14 14 14 14 14 14 14 13 13 13 13 13 13 13 13 13 13 12 12
11 10 11 11 12 14 16 16 17 17 17 17 17 16 16 16 16 16 15 15 15 15 14 14 14 14 14 13 13 13 13 13 13 13 13 13 13 13 13 12 12 12 12 12
10 11 11 12 14 13 15 16 16 16 16 16 16 16 16 16 15 15 15 15 15 14 14 14 14 13 13 13 13 13 13 13 13 13 13 13 12 12 12 12 12 12 12 12
Wind_Speed
4 5 2 4 5 4 4 3 1 2 1 3 2 2 3 1 1 3 3 3 3 3 2 1 2 2 2 2 3 2 2 2 3 2 2 2 1 1 2 2 2 2 3 4
5 1 4 2 3 3 3 3 1 1 2 3 1 2 3 2 4 4 5 4 4 2 1 1 2 2 2 2 2 2 2 2 2 2 1 1 1 1 1 2 3 3 3 3
3 3 1 4 3 3 1 4 3 2 3 3 2 5 3 2 2 1 2 3 3 4 4 3 2 2 2 2 3 3 3 2 2 2 2 2 3 2 2 2 2 2 1 2
1 2 2 2 1 4 2 3 3 3 3 2 1 3 5 3 2 2 3 3 4 4 4 4 4 3 3 3 2 3 2 2 2 2 3 3 1 0 1 1 1 2 2 2
1 1 2 1 2 3 3 2 3 3 3 1 1 1 7 2 3 5 5 4 4 4 4 5 5 5 3 3 3 3 3 2 2 2 2 2 1 0 0 1 1 2 2 2
2 1 2 3 1 2 4 5 6 5 4 2 3 3 6 4 5 5 4 4 4 4 4 4 4 4 3 2 3 3 3 2 1 2 2 2 2 1 1 1 1 1 2 2
4 3 2 2 3 4 5 5 4 4 3 4 2 2 7 6 5 5 5 5 4 4 4 4 5 5 4 3 3 3 3 2 1 2 1 1 2 2 2 1 1 0 1 1
1 4 3 1 4 4 3 6 5 3 3 4 3 4 6 5 3 2 3 3 4 3 4 4 5 5 5 4 4 3 3 2 2 2 1 1 1 1 1 1 1 1 1 1
5 4 4 1 1 6 4 3 5 5 1 2 5 6 7 2 2 1 2 3 4 4 4 4 4 5 5 5 4 4 4 2 2 2 1 1 1 1 1 1 1 1 1 1
6 3 3 2 4 4 4 7 5 4 2 2 5 4 4 5 4 2 3 4 5 4 4 4 4 4 4 4 4 3 4 3 3 2 2 1 1 2 2 1 1 1 1 1
4 4 2 2 2 3 3 4 4 4 4 4 3 6 5 6 6 5 5 5 6 6 6 5 4 4 3 3 3 3 3 3 2 2 2 1 1 2 2 2 2 2 1 1
4 4 1 4 3 3 4 5 6 4 3 4 3 7 5 5 5 4 5 4 4 5 5 5 4 3 3 3 3 3 3 3 3 3 2 2 2 1 2 2 2 2 2 2
5 5 2 5 5 1 1 3 4 5 4 4 4 7 4 3 3 3 4 4 4 5 4 4 4 4 4 3 3 3 3 3 3 3 3 2 2 2 2 3 2 2 2 2
5 4 6 8 7 4 3 3 4 5 4 5 7 8 8 7 5 5 4 4 5 5 5 5 4 4 4 3 3 3 3 3 3 3 3 3 4 4 3 3 2 2 2 2
4 3 5 6 5 4 5 6 6 7 8 8 8 8 11 8 7 6 4 4 4 5 5 6 6 5 4 4 3 3 3 3 3 3 4 4 4 3 3 2 2 2 2 3
3 3 2 3 3 3 5 7 7 7 6 7 6 9 9 5 3 3 3 4 5 6 6 6 6 5 5 5 5 4 4 3 3 3 4 4 3 3 3 3 2 2 2 2
2 4 2 4 4 2 7 8 8 6 7 8 9 9 4 2 4 5 5 5 5 5 6 6 6 6 5 5 5 5 4 3 3 3 3 3 3 3 3 3 3 3 3 3
5 4 3 1 1 6 9 5 7 7 7 8 7 6 5 5 4 3 4 6 5 5 5 5 5 5 4 4 4 4 3 2 3 3 3 3 2 3 3 3 3 4 3 3
5 6 4 3 3 8 9 5 5 5 6 6 7 6 3 2 2 2 3 5 6 6 6 6 5 5 4 4 3 3 3 3 3 3 4 3 3 3 3 3 4 3 3 3
4 4 5 4 3 6 7 4 2 2 5 5 6 6 4 4 1 6 4 4 4 4 4 4 4 3 3 3 3 3 3 3 4 5 5 4 4 4 4 5 4 3 3 4
2 2 4 5 5 8 8 3 3 3 6 3 5 5 5 6 7 5 3 3 3 3 3 3 3 3 4 4 4 4 3 5 5 4 4 3 4 5 5 4 3 3 3 2
6 5 5 5 5 8 4 3 5 6 3 2 3 4 5 6 4 3 3 3 3 2 2 2 3 2 2 3 4 4 5 5 3 3 3 3 3 3 3 3 3 3 4 3
6 7 6 8 8 5 3 5 4 2 3 4 4 4 4 4 5 4 3 3 3 3 2 2 3 2 2 3 4 5 5 3 2 2 3 3 3 2 3 3 3 3 3 3
4 2 3 4 8 6 6 5 4 3 4 4 4 4 4 4 5 4 4 3 3 3 3 2 3 3 3 3 3 4 4 3 3 3 3 3 2 2 2 2 3 3 4 4
5 4 3 5 7 7 6 5 5 4 4 3 2 2 4 4 4 5 5 5 4 4 3 3 4 4 4 3 3 3 3 3 3 3 3 3 3 3 2 2 2 4 4 5
5 6 6 7 7 5 8 7 5 4 4 3 2 2 2 3 4 4 4 4 4 4 4 4 4 4 4 4 4 3 3 3 4 3 3 3 3 2 2 2 1 3 3 4
Wind_Direction
37 72 154 210 192 174 156 155 187 255 192 124 161 245 277 251 165 195 206 208 217 238 270 116 119 108 110 103 111 123 126 109 97 85 80 71 42 13 13 27 65 89 106 124
43 326 244 172 137 128 138 137 173 338 52 138 152 290 275 225 215 209 208 214 220 221 184 132 134 120 137 144 141 145 149 141 137 126 129 123 110 39 1 12 50 70 97 125
172 250 152 123 122 120 150 173 194 191 31 44 37 333 308 280 235 217 217 217 214 200 191 182 167 167 153 167 172 172 162 149 129 110 87 65 48 30 19 14 12 18 77 115
224 280 114 107 158 149 234 223 168 137 93 324 46 301 291 283 278 254 242 229 227 214 193 187 179 176 186 197 172 150 136 128 115 123 120 116 118 138 267 293 326 360 41 91
249 198 129 179 233 168 197 106 109 111 120 37 7 213 291 321 273 262 247 231 225 213 196 190 186 183 181 166 152 141 128 113 99 109 128 125 104 135 344 11 23 10 9 40
268 276 186 198 103 117 118 73 56 48 69 342 256 187 287 257 241 261 245 225 218 210 198 182 169 155 148 137 136 133 129 121 108 111 114 133 137 123 87 38 29 8 358 5
347 336 325 130 76 38 83 87 34 2 10 266 265 202 255 259 248 231 228 218 207 197 183 165 159 164 169 165 166 153 150 157 142 129 136 164 166 159 171 192 210 268 342 332
140 297 287 191 165 167 146 137 155 203 235 283 316 245 260 272 289 249 207 184 171 178 178 172 176 177 180 182 177 171 171 179 175 167 195 187 155 165 194 196 203 215 231 244
172 253 303 285 148 134 131 149 159 137 166 293 290 292 303 327 6 49 135 150 178 184 182 181 179 180 185 188 188 185 179 190 196 195 195 189 182 191 208 210 207 224 247 242
157 211 306 336 67 39 129 142 106 122 155 272 297 288 265 284 282 261 196 194 201 190 183 181 183 189 194 195 190 179 179 193 205 200 206 212 215 221 209 181 200 222 238 202
137 158 312 28 161 182 93 97 105 113 150 163 272 278 234 234 240 233 222 210 198 191 190 189 191 197 185 171 174 182 186 187 194 200 216 218 230 230 208 195 218 216 208 180
140 128 226 265 268 213 173 167 148 155 210 175 191 269 276 247 240 222 224 221 203 191 187 186 182 175 170 177 186 195 200 203 210 203 202 217 225 215 214 221 228 213 198 189
139 119 68 343 341 349 147 154 144 128 126 163 189 261 293 312 295 248 218 216 199 184 179 178 174 176 187 197 196 197 210 222 221 203 202 214 220 215 221 226 227 212 198 187
124 131 171 202 223 214 231 215 172 143 165 204 221 248 283 285 277 268 229 210 191 188 185 183 188 196 195 200 207 207 218 223 217 207 207 217 226 226 229 225 213 198 189 186
114 172 213 232 238 215 226 228 201 198 197 201 230 234 256 258 245 244 222 189 182 194 193 193 195 203 204 204 215 216 222 222 215 206 215 228 232 229 226 216 206 187 183 199
95 154 188 279 277 242 251 243 218 220 214 219 241 259 258 256 227 219 202 186 196 206 204 202 201 202 207 212 217 218 221 226 205 208 225 229 220 217 214 210 199 184 193 197
121 132 135 261 298 335 267 235 212 213 208 192 219 240 244 237 222 215 204 192 199 208 207 203 204 208 212 214 210 218 220 216 206 217 229 225 214 217 221 208 190 196 202 191
154 138 146 211 26 243 247 246 215 217 231 218 222 232 221 224 219 216 196 192 202 206 204 207 209 211 216 211 208 206 201 194 210 230 240 234 214 221 218 201 204 211 199 191
165 150 144 148 227 274 290 268 192 195 253 231 218 229 218 159 63 311 230 199 202 204 201 203 204 200 199 203 202 186 194 198 213 236 243 238 220 218 208 209 216 214 200 204
79 122 139 152 195 246 257 277 247 135 273 247 201 213 195 130 181 263 239 205 206 200 193 194 190 175 184 201 181 179 206 209 231 241 243 236 220 211 214 217 213 203 195 210
96 103 164 185 221 258 258 272 109 160 250 259 203 210 192 201 222 239 205 203 198 195 200 182 165 179 198 191 174 195 213 230 240 243 245 238 228 218 217 212 203 188 181 178
179 175 188 169 207 254 253 148 177 225 265 247 223 217 210 228 234 217 198 197 181 181 189 172 170 204 210 184 180 207 229 240 235 222 234 240 235 226 215 198 198 183 174 174
200 195 193 195 217 247 243 225 250 233 253 255 244 242 213 222 232 226 221 208 206 204 204 195 182 200 229 207 192 211 237 234 224 229 244 245 236 222 200 187 184 176 178 184
256 187 176 250 268 270 267 265 277 262 258 267 249 230 204 224 234 228 224 221 216 217 212 202 181 192 228 235 223 221 231 215 197 221 244 237 218 222 208 196 187 182 190 196
226 180 202 253 277 299 285 258 271 278 288 292 278 235 207 202 224 219 220 222 218 216 209 193 195 210 229 236 245 244 226 200 207 226 238 234 220 209 205 206 212 207 211 204
200 187 193 234 241 234 265 278 273 269 270 258 259 281 259 213 221 221 220 219 210 206 202 203 209 216 227 230 241 246 230 204 203 224 231 225 221 208 200 207 263 267 236 229
Height
1529 1534 1540 1538 1537 1539 1542 1546 1549 1546 1542 1545 1548 1548 1545 1544 1544 1544 1544 1544 1545 1546 1547 1548 1549 1550 1551 1552 1553 1553 1553 1554 1554 1554 1554 1554 1554 1554 1554 1554 1554 1554 1555 1555
1536 1538 1534 1533 1535 1538 1542 1547 1549 1546 1542 1545 1548 1548 1544 1543 1543 1543 1543 1543 1544 1545 1546 1547 1549 1550 1551 1552 1552 1553 1553 1554 1554 1554 1554 1555 1555 1554 1555 1555 1555 1554 1555 1555
1537 1535 1531 1533 1536 1540 1543 1546 1546 1547 1545 1545 1548 1551 1545 1542 1542 1542 1542 1542 1543 1543 1545 1546 1548 1549 1550 1551 1552 1553 1553 1554 1554 1554 1554 1554 1555 1554 1555 1554 1554 1554 1554 1555
1535 1532 1532 1535 1537 1538 1545 1539 1541 1544 1552 1557 1553 1564 1549 1543 1542 1540 1540 1540 1541 1542 1543 1545 1546 1548 1549 1550 1552 1553 1553 1554 1554 1554 1554 1554 1554 1554 1554 1554 1554 1554 1555 1555
1536 1533 1534 1536 1536 1536 1539 1538 1541 1545 1551 1558 1556 1562 1555 1545 1543 1540 1538 1538 1539 1540 1542 1543 1545 1547 1549 1550 1551 1552 1553 1553 1554 1554 1554 1554 1554 1554 1554 1554 1554 1554 1555 1555
1533 1532 1532 1533 1532 1534 1536 1542 1546 1552 1557 1567 1559 1563 1558 1548 1541 1537 1536 1536 1537 1539 1540 1542 1544 1546 1548 1549 1550 1551 1552 1552 1553 1553 1553 1553 1553 1553 1553 1553 1553 1554 1554 1554
1538 1534 1531 1531 1535 1536 1539 1552 1566 1568 1573 1570 1556 1559 1554 1538 1535 1534 1534 1534 1535 1537 1539 1541 1543 1544 1547 1548 1549 1550 1551 1551 1552 1552 1552 1552 1552 1552 1552 1552 1553 1553 1553 1554
1547 1547 1534 1532 1534 1539 1542 1549 1566 1574 1576 1569 1558 1559 1546 1534 1532 1531 1532 1533 1534 1536 1538 1539 1541 1543 1545 1547 1548 1549 1550 1550 1551 1551 1551 1552 1552 1552 1552 1552 1552 1552 1552 1553
1547 1546 1533 1531 1531 1534 1543 1548 1549 1562 1565 1570 1563 1553 1540 1532 1532 1531 1532 1532 1533 1535 1537 1539 1541 1543 1544 1546 1547 1548 1549 1549 1550 1550 1550 1551 1551 1551 1551 1551 1551 1551 1552 1552
1538 1544 1536 1533 1532 1534 1537 1544 1554 1562 1571 1575 1564 1558 1551 1537 1533 1532 1532 1532 1533 1535 1536 1538 1540 1542 1544 1545 1546 1547 1547 1548 1548 1549 1549 1549 1550 1550 1550 1550 1550 1550 1551 1551
1535 1543 1542 1537 1538 1540 1542 1546 1552 1561 1563 1572 1573 1561 1536 1534 1531 1530 1530 1531 1532 1534 1535 1537 1539 1541 1543 1544 1545 1545 1546 1546 1547 1547 1548 1548 1548 1548 1549 1548 1549 1549 1549 1549
1535 1544 1549 1542 1535 1534 1536 1541 1550 1559 1563 1566 1569 1559 1529 1528 1527 1528 1528 1530 1531 1533 1535 1536 1538 1540 1541 1542 1543 1543 1544 1544 1545 1546 1546 1546 1546 1546 1546 1546 1547 1547 1547 1548
1534 1544 1554 1551 1547 1539 1538 1539 1544 1551 1560 1567 1567 1554 1528 1527 1526 1526 1527 1528 1530 1532 1533 1535 1536 1538 1539 1540 1541 1542 1542 1543 1543 1544 1544 1544 1544 1544 1544 1544 1545 1545 1545 1546
1530 1540 1548 1553 1547 1540 1539 1539 1542 1548 1558 1561 1556 1545 1532 1528 1526 1525 1525 1526 1528 1530 1532 1533 1534 1536 1537 1539 1539 1540 1540 1541 1541 1541 1541 1541 1541 1542 1542 1542 1542 1543 1543 1544
1530 1539 1538 1537 1535 1535 1535 1535 1538 1541 1544 1549 1543 1539 1530 1525 1524 1524 1524 1525 1526 1528 1529 1531 1532 1534 1535 1536 1537 1538 1538 1539 1539 1539 1539 1539 1539 1539 1539 1540 1540 1541 1541 1542
1531 1536 1537 1537 1533 1534 1534 1531 1533 1534 1535 1537 1536 1533 1523 1522 1522 1522 1523 1523 1524 1525 1527 1528 1530 1531 1533 1534 1534 1535 1535 1536 1536 1536 1536 1537 1537 1537 1537 1537 1538 1538 1539 1539
1533 1536 1542 1544 1537 1535 1538 1528 1527 1527 1526 1528 1531 1525 1520 1520 1520 1520 1520 1521 1522 1523 1524 1526 1527 1529 1530 1531 1532 1533 1533 1533 1534 1534 1534 1534 1534 1534 1534 1535 1535 1535 1536 1537
1532 1537 1543 1546 1542 1546 1529 1518 1518 1520 1519 1519 1518 1517 1517 1517 1517 1518 1518 1519 1519 1520 1522 1523 1525 1526 1528 1529 1530 1530 1531 1531 1531 1531 1531 1532 1532 1531 1532 1532 1532 1532 1533 1534
1526 1534 1543 1548 1547 1539 1525 1516 1516 1518 1518 1513 1514 1514 1514 1515 1516 1516 1516 1517 1517 1518 1520 1521 1522 1524 1525 1526 1527 1528 1528 1528 1528 1528 1529 1529 1529 1529 1529 1528 1529 1529 1530 1531
1527 1530 1540 1546 1543 1541 1524 1512 1511 1514 1518 1510 1510 1511 1512 1514 1519 1515 1513 1514 1515 1516 1518 1518 1520 1521 1522 1523 1524 1524 1525 1525 1525 1525 1525 1526 1526 1526 1526 1526 1526 1526 1527 1527
1532 1535 1539 1542 1541 1532 1515 1511 1511 1523 1519 1508 1508 1508 1509 1510 1511 1511 1511 1511 1512 1514 1515 1516 1517 1517 1518 1519 1520 1521 1521 1521 1522 1522 1522 1522 1522 1522 1522 1522 1523 1523 1523 1524
1529 1534 1538 1540 1540 1531 1510 1510 1513 1512 1507 1506 1506 1506 1507 1507 1507 1508 1508 1509 1510 1511 1512 1513 1513 1514 1515 1516 1517 1517 1517 1518 1519 1519 1519 1519 1519 1519 1519 1519 1519 1519 1520 1520
1524 1523 1524 1525 1521 1511 1508 1507 1507 1506 1506 1504 1504 1504 1504 1504 1505 1505 1506 1506 1507 1508 1509 1509 1510 1511 1511 1512 1513 1513 1514 1515 1515 1516 1516 1516 1516 1515 1515 1515 1515 1515 1516 1516
1518 1516 1518 1518 1510 1506 1506 1505 1504 1504 1503 1502 1502 1502 1502 1502 1502 1502 1503 1503 1504 1505 1505 1506 1507 1507 1508 1509 1509 1510 1511 1512 1512 1512 1512 1512 1512 1512 1512 1512 1511 1511 1512 1512
1513 1514 1515 1514 1508 1504 1502 1502 1502 1501 1500 1500 1499 1499 1499 1499 1499 1499 1499 1500 1501 1501 1502 1503 1503 1504 1504 1505 1506 1507 1507 1508 1508 1508 1508 1508 1508 1508 1508 1508 1508 1508 1508 1509
1508 1509 1511 1509 1503 1503 1500 1499 1499 1498 1497 1497 1496 1496 1496 1496 1496 1496 1496 1497 1497 1498 1499 1499 1500 1500 1501 1502 1503 1503 1504 1504 1504 1504 1504 1504 1504 1504 1504 1505 1505 1505 1505 1505